Location: Ciula Mare
(45.6000°N, 22.8167°E)
Time: 20:38:41
(UTC+00:00)

Cosmos 540 Rocket - Pass Details

Date: 03 February 2023
Orbit: 740 x 751 km, 74.1° (Epoch: 23 March)

Event Time Altitude Azimuth Distance (km) Brightness Sun altitude
Rises 16:51:37 0° 340° (NNW) 3,207 6.8 -13.2°
Reaches altitude 10° 16:54:00 10° 344° (NNW) 2,277 6.0 -13.6°
Maximum altitude 16:59:09 66° 67° (ENE) 815 3.4 -14.5°
Drops below altitude 10° 17:04:13 10° 149° (SSE) 2,253 5.7 -15.4°
Sets 17:06:35 0° 152° (SSE) 3,170 6.5 -15.8°
